Back to catalog

NOAA 16 DEB

AliveSSO
NORAD 41655·DEBRIS·🇺🇸 United States

Launched Sep 21, 2000 from Vandenberg Space Force Base

Loading…

Next Passes (next 24 hours)

TLE

FreshSource: Space-Track

Epoch: Sep 14, 2026, 12:54 UTC

1 41655U 00055NU  26257.53757740  .00003328  00000-0  11015-2 0  9997
2 41655  98.7256   3.1691 0016851 223.3156 136.6707 14.38532902540199

Track NOAA 16 DEB in real time with AllMySat

Download on the App Store